Wilson Lista — 8PRW — position and weather

sailwx.info

Track history (hours):
 
Tides and Currents Weather Stations Pressure Air Temp Water Temp Dewpoint Dewpoint Depression Visibility Wind Speed Wind Dir Waves Ship Positions

Wilson Lista

Last reported at 2014-Oct-22 06:26 UTC. Time now 2014-Oct-23 03:16 UTC.
Position N 35°60' W 005°12'.

Length 88 m; draft 5.6 m.

Type: Cargo ship. MMSI: 314188000.

Date/timePositionNaut miles runAvg speedWind from/ knotsBaromVisibWave heightAir tempDewpointWater temp
2014-Oct-22 06:26N 35°60' W 005°12'1010.8
2014-Oct-22 05:33N 35°58' W 005°24'214 9.3
2014-Oct-21 06:26N 37°03' W 009°38'9 9.5
2014-Oct-21 05:33N 37°11' W 009°40'10 9.6
2014-Oct-21 04:33N 37°20' W 009°44'9 9.4
2014-Oct-21 03:33N 37°29' W 009°47'10 9.7
2014-Oct-21 02:34N 37°38' W 009°49'10 9.7
2014-Oct-21 01:33N 37°48' W 009°52'10 9.7
2014-Oct-21 00:33N 37°57' W 009°55'10 9.8
2014-Oct-20 23:33N 38°07' W 009°58'10 9.9
2014-Oct-20 22:33N 38°17' W 009°60'  
2014-Oct-15 13:33N 50°36' E 000°24'7 7.3
2014-Oct-15 12:33N 50°39' E 000°35'8 8.0
2014-Oct-15 11:33N 50°43' E 000°45'21 9.3
2014-Oct-15 09:19N 50°56' E 001°11'7 9.6
2014-Oct-15 08:33N 51°01' E 001°20'9 8.8
2014-Oct-15 07:33N 51°06' E 001°31'8 7.6
2014-Oct-15 06:33N 51°11' E 001°40'7 7.1
2014-Oct-15 05:33N 51°16' E 001°48'7 7.3
2014-Oct-15 04:32N 51°23' E 001°53'8 8.0
2014-Oct-15 03:33N 51°29' E 002°01'73 8.1
2014-Oct-14 18:33N 52°03' E 003°46'7 6.5
2014-Oct-14 17:33N 52°02' E 003°57'7 7.0
2014-Oct-14 16:33N 51°58' E 004°06'7 6.7
2014-Oct-14 15:33N 51°54' E 004°14'0 0.1
2014-Oct-14 14:31N 51°54' E 004°14'0 0.0
2014-Oct-14 13:33N 51°54' E 004°14'0 0.0
2014-Oct-14 12:32N 51°54' E 004°14'0 0.0
2014-Oct-14 11:27N 51°54' E 004°14'0 0.0
2014-Oct-14 10:33N 51°54' E 004°14'0 0.0
2014-Oct-14 09:34N 51°54' E 004°14'0 0.0
2014-Oct-14 08:33N 51°54' E 004°14'0 0.0
2014-Oct-14 07:31N 51°54' E 004°14'0 0.0
2014-Oct-14 06:33N 51°54' E 004°14'0 0.0
2014-Oct-14 05:33N 51°54' E 004°14'0 0.0
2014-Oct-14 04:33N 51°54' E 004°14'0 0.0
2014-Oct-14 03:33N 51°54' E 004°14'0 0.0
2014-Oct-14 02:32N 51°54' E 004°14'0 0.0
2014-Oct-14 01:34N 51°54' E 004°14'0 0.0
2014-Oct-14 00:31N 51°54' E 004°14'0 0.0
2014-Oct-13 23:33N 51°54' E 004°14'0 0.0
2014-Oct-13 22:32N 51°54' E 004°14'0 0.0
2014-Oct-13 21:31N 51°54' E 004°14'0 0.0
2014-Oct-13 20:32N 51°54' E 004°14'0 0.0
2014-Oct-13 19:33N 51°54' E 004°14'0 0.0
2014-Oct-13 18:32N 51°54' E 004°14'0 0.0
2014-Oct-13 17:31N 51°54' E 004°14'1 1.2
2014-Oct-13 16:33N 51°55' E 004°13'4 3.5
2014-Oct-13 15:29N 51°57' E 004°09'0 0.0
2014-Oct-13 14:31N 51°57' E 004°09'0 0.0
2014-Oct-13 13:28N 51°57' E 004°09'0 0.0
2014-Oct-13 12:33N 51°57' E 004°09'0 0.0
2014-Oct-13 11:33N 51°57' E 004°09'0 0.0
2014-Oct-13 10:32N 51°57' E 004°09'0 0.0
2014-Oct-13 09:23N 51°57' E 004°09'0 0.0
2014-Oct-13 08:28N 51°57' E 004°09'0 0.0
2014-Oct-13 07:31N 51°57' E 004°09'0 0.0
2014-Oct-13 06:22N 51°57' E 004°09'0 0.0
2014-Oct-13 05:30N 51°57' E 004°09'0 0.0
2014-Oct-13 04:33N 51°57' E 004°09'0 0.0
2014-Oct-13 03:32N 51°57' E 004°09'0 0.0
2014-Oct-13 02:32N 51°57' E 004°09'0 0.0
2014-Oct-13 01:28N 51°57' E 004°09'0 0.0
2014-Oct-13 00:31N 51°57' E 004°09'0 0.0
2014-Oct-12 23:31N 51°57' E 004°09'0 0.0
2014-Oct-12 22:33N 51°57' E 004°09'0 0.0
2014-Oct-12 21:33N 51°57' E 004°09'0 0.0
2014-Oct-12 20:32N 51°57' E 004°09'0 0.0
2014-Oct-12 19:32N 51°57' E 004°09'0 0.0
2014-Oct-12 18:31N 51°57' E 004°09'0 0.0
2014-Oct-12 17:25N 51°57' E 004°09'0 0.0
2014-Oct-12 16:28N 51°57' E 004°09'0 0.0
2014-Oct-12 15:27N 51°57' E 004°09'0 0.0
2014-Oct-12 14:30N 51°57' E 004°09'0 0.0
2014-Oct-12 13:29N 51°57' E 004°09'0 0.0
2014-Oct-12 12:32N 51°57' E 004°09'0 0.0
2014-Oct-12 11:31N 51°57' E 004°09'0 0.0
2014-Oct-12 10:28N 51°57' E 004°09'0 0.0
2014-Oct-12 09:31N 51°57' E 004°09'0 0.0
2014-Oct-12 08:33N 51°57' E 004°09'0 0.0
2014-Oct-12 07:30N 51°57' E 004°09'0 0.0
2014-Oct-12 06:29N 51°57' E 004°09'  
Track history (hours):
 
Tides and Currents Weather Stations Pressure Air Temp Water Temp Dewpoint Dewpoint Depression Visibility Wind Speed Wind Dir Waves Ship Positions

Wilson Lista

Last reported at 2014-Oct-22 06:26 UTC. Time now 2014-Oct-23 03:16 UTC.
Position N 35°60' W 005°12'.

Length 88 m; draft 5.6 m.

Type: Cargo ship. MMSI: 314188000.

Date/timePositionNaut miles runAvg speedWind from/ knotsBaromVisibWave heightAir tempDewpointWater temp
2014-Oct-22 06:26N 35°60' W 005°12'1010.8
2014-Oct-22 05:33N 35°58' W 005°24'214 9.3
2014-Oct-21 06:26N 37°03' W 009°38'9 9.5
2014-Oct-21 05:33N 37°11' W 009°40'10 9.6
2014-Oct-21 04:33N 37°20' W 009°44'9 9.4
2014-Oct-21 03:33N 37°29' W 009°47'10 9.7
2014-Oct-21 02:34N 37°38' W 009°49'10 9.7
2014-Oct-21 01:33N 37°48' W 009°52'10 9.7
2014-Oct-21 00:33N 37°57' W 009°55'10 9.8
2014-Oct-20 23:33N 38°07' W 009°58'10 9.9
2014-Oct-20 22:33N 38°17' W 009°60'  
2014-Oct-15 13:33N 50°36' E 000°24'7 7.3
2014-Oct-15 12:33N 50°39' E 000°35'8 8.0
2014-Oct-15 11:33N 50°43' E 000°45'21 9.3
2014-Oct-15 09:19N 50°56' E 001°11'7 9.6
2014-Oct-15 08:33N 51°01' E 001°20'9 8.8
2014-Oct-15 07:33N 51°06' E 001°31'8 7.6
2014-Oct-15 06:33N 51°11' E 001°40'7 7.1
2014-Oct-15 05:33N 51°16' E 001°48'7 7.3
2014-Oct-15 04:32N 51°23' E 001°53'8 8.0
2014-Oct-15 03:33N 51°29' E 002°01'73 8.1
2014-Oct-14 18:33N 52°03' E 003°46'7 6.5
2014-Oct-14 17:33N 52°02' E 003°57'7 7.0
2014-Oct-14 16:33N 51°58' E 004°06'7 6.7
2014-Oct-14 15:33N 51°54' E 004°14'0 0.1
2014-Oct-14 14:31N 51°54' E 004°14'0 0.0
2014-Oct-14 13:33N 51°54' E 004°14'0 0.0
2014-Oct-14 12:32N 51°54' E 004°14'0 0.0
2014-Oct-14 11:27N 51°54' E 004°14'0 0.0
2014-Oct-14 10:33N 51°54' E 004°14'0 0.0
2014-Oct-14 09:34N 51°54' E 004°14'0 0.0
2014-Oct-14 08:33N 51°54' E 004°14'0 0.0
2014-Oct-14 07:31N 51°54' E 004°14'0 0.0
2014-Oct-14 06:33N 51°54' E 004°14'0 0.0
2014-Oct-14 05:33N 51°54' E 004°14'0 0.0
2014-Oct-14 04:33N 51°54' E 004°14'0 0.0
2014-Oct-14 03:33N 51°54' E 004°14'0 0.0
2014-Oct-14 02:32N 51°54' E 004°14'0 0.0
2014-Oct-14 01:34N 51°54' E 004°14'0 0.0
2014-Oct-14 00:31N 51°54' E 004°14'0 0.0
2014-Oct-13 23:33N 51°54' E 004°14'0 0.0
2014-Oct-13 22:32N 51°54' E 004°14'0 0.0
2014-Oct-13 21:31N 51°54' E 004°14'0 0.0
2014-Oct-13 20:32N 51°54' E 004°14'0 0.0
2014-Oct-13 19:33N 51°54' E 004°14'0 0.0
2014-Oct-13 18:32N 51°54' E 004°14'0 0.0
2014-Oct-13 17:31N 51°54' E 004°14'1 1.2
2014-Oct-13 16:33N 51°55' E 004°13'4 3.5
2014-Oct-13 15:29N 51°57' E 004°09'0 0.0
2014-Oct-13 14:31N 51°57' E 004°09'0 0.0
2014-Oct-13 13:28N 51°57' E 004°09'0 0.0
2014-Oct-13 12:33N 51°57' E 004°09'0 0.0
2014-Oct-13 11:33N 51°57' E 004°09'0 0.0
2014-Oct-13 10:32N 51°57' E 004°09'0 0.0
2014-Oct-13 09:23N 51°57' E 004°09'0 0.0
2014-Oct-13 08:28N 51°57' E 004°09'0 0.0
2014-Oct-13 07:31N 51°57' E 004°09'0 0.0
2014-Oct-13 06:22N 51°57' E 004°09'0 0.0
2014-Oct-13 05:30N 51°57' E 004°09'0 0.0
2014-Oct-13 04:33N 51°57' E 004°09'0 0.0
2014-Oct-13 03:32N 51°57' E 004°09'0 0.0
2014-Oct-13 02:32N 51°57' E 004°09'0 0.0
2014-Oct-13 01:28N 51°57' E 004°09'0 0.0
2014-Oct-13 00:31N 51°57' E 004°09'0 0.0
2014-Oct-12 23:31N 51°57' E 004°09'0 0.0
2014-Oct-12 22:33N 51°57' E 004°09'0 0.0
2014-Oct-12 21:33N 51°57' E 004°09'0 0.0
2014-Oct-12 20:32N 51°57' E 004°09'0 0.0
2014-Oct-12 19:32N 51°57' E 004°09'0 0.0
2014-Oct-12 18:31N 51°57' E 004°09'0 0.0
2014-Oct-12 17:25N 51°57' E 004°09'0 0.0
2014-Oct-12 16:28N 51°57' E 004°09'0 0.0
2014-Oct-12 15:27N 51°57' E 004°09'0 0.0
2014-Oct-12 14:30N 51°57' E 004°09'0 0.0
2014-Oct-12 13:29N 51°57' E 004°09'0 0.0
2014-Oct-12 12:32N 51°57' E 004°09'0 0.0
2014-Oct-12 11:31N 51°57' E 004°09'0 0.0
2014-Oct-12 10:28N 51°57' E 004°09'0 0.0
2014-Oct-12 09:31N 51°57' E 004°09'0 0.0
2014-Oct-12 08:33N 51°57' E 004°09'0 0.0
2014-Oct-12 07:30N 51°57' E 004°09'0 0.0
2014-Oct-12 06:29N 51°57' E 004°09'  

Dump ship's entire track history